sat.trackr.live / text

‹ back to catalog

UNKNOWN

NORAD 81497

UNKNOWN UNKNOWN UNKNOWN

§ Identity

Operator
Country
Launch date
Launch site
Launch vehicle
Mass (kg)
RCS (m²)

External: N2YO · Heavens-Above

§ Orbital elements

Epoch: 2026-09-13T13:32:28.089600Z

Period
103.90 min
Inclination
100.2933°
Eccentricity
0.0029491
Mean motion
13.85965160 rev/d
Perigee alt
921.2 km
Apogee alt
964.4 km
Semi-major
7,320.9 km
B*
2.4426e-3
RAAN
182.8183°
Arg perigee
26.9741°
Mean anomaly
148.1134°
Rev number
25,434

§ Raw data

UNKNOWN1 81497U          26256.56421400  .00002767  00000+0  24426-2 0  99932 81497 100.2933 182.8183 0029491  26.9741 148.1134 13.85965160254348

JSON: /api/v1/satellites/81497 · /tle

For live sub-satellite position, see the globe view (requires WebGL).

§ Visibility from observer

Set your observer location to see the next 7 days of passes ≥ 10°. The values pass through the URL so the page stays shareable.

No JS? Fill the form by hand. The geolocation button needs JavaScript.